Location: Elaina
(34.1445°N, 106.7742°W)
Time: 16:44:38
(UTC+00:00)

STARLINK-36091 - Pass Details

Date: 11 December 2025
Orbit: 482 x 484 km, 43.0° (Epoch: 16 January)

Event Time Altitude Azimuth Distance (km) Brightness Sun altitude
Exits shadow 11:20:23 13° 119° (ESE) 1,474 5.5 -32.8°
Drops below altitude 10° 11:21:23 10° 104° (ESE) 1,649 5.9 -32.6°
Enters shadow 12:24:18 -60° 240° (WSW) 11,631 9.3 -19.8°
Maximum altitude 12:58:03 87° 327° (NNW) 484 2.2 -13.2°
